StationID,Date,MaxTemp,MinTemp,Precipitation,Snowfall,SnowDepth
"USC00500272","2005-08-01",62.96,53.06,0.00,0.00,0.00
"USC00500272","2005-08-02",60.98,46.04,76.00,0.00,0.00
"USC00500272","2005-08-03",62.06,51.08,38.00,0.00,0.00
"USC00500272","2005-08-04",60.98,51.08,30.00,0.00,0.00
"USC00500272","2005-08-05",66.92,53.06,5.00,0.00,0.00
"USC00500272","2005-08-06",75.02,55.04,0.00,0.00,0.00
"USC00500272","2005-08-07",71.96,51.98,0.00,0.00,0.00
"USC00500272","2005-08-08",71.06,50.00,0.00,0.00,0.00
"USC00500272","2005-08-09",75.92,51.08,0.00,0.00,0.00
"USC00500272","2005-08-10",75.92,55.04,0.00,0.00,0.00
"USC00500272","2005-08-11",73.94,53.96,0.00,0.00,0.00
"USC00500272","2005-08-12",78.98,51.98,0.00,0.00,0.00
"USC00500272","2005-08-13",82.94,55.04,0.00,0.00,0.00
"USC00500272","2005-08-14",82.04,55.04,0.00,0.00,0.00
"USC00500272","2005-08-15",71.96,55.04,0.00,0.00,0.00
"USC00500272","2005-08-16",66.02,55.94,0.00,0.00,0.00
"USC00500272","2005-08-17",68.00,51.98,0.00,0.00,0.00
"USC00500272","2005-08-18",64.94,53.96,64.00,0.00,0.00
"USC00500272","2005-08-19",66.02,53.06,66.00,0.00,0.00
"USC00500272","2005-08-20",68.00,55.04,0.00,0.00,0.00
"USC00500272","2005-08-21",69.98,50.00,112.00,0.00,0.00
"USC00500272","2005-08-22",66.92,53.06,76.00,0.00,0.00
"USC00500272","2005-08-23",69.08,53.96,109.00,0.00,0.00
"USC00500272","2005-08-24",62.06,50.00,160.00,0.00,0.00
"USC00500272","2005-08-25",60.08,51.98,107.00,0.00,0.00
"USC00500272","2005-08-26",64.04,42.98,66.00,0.00,0.00
"USC00500272","2005-08-27",66.92,41.00,0.00,0.00,0.00
"USC00500272","2005-08-28",66.02,51.08,,0.00,0.00
"USC00500272","2005-08-29",64.04,51.08,,0.00,0.00
"USC00500272","2005-08-30",64.04,51.08,0.00,0.00,0.00
"USC00500272","2005-08-31",66.02,50.00,56.00,0.00,0.00
"USC00500272","2005-09-01",62.96,51.08,76.00,0.00,0.00
"USC00500272","2005-09-02",62.06,46.04,0.00,0.00,0.00
"USC00500272","2005-09-03",64.04,37.94,0.00,0.00,0.00
"USC00500272","2005-09-04",60.98,50.00,97.00,0.00,0.00
"USC00500272","2005-09-05",55.94,48.02,89.00,0.00,0.00
"USC00500272","2005-09-06",55.94,48.92,89.00,0.00,0.00
"USC00500272","2005-09-07",55.04,50.00,229.00,0.00,0.00
"USC00500272","2005-09-08",62.06,48.92,0.00,0.00,0.00
"USC00500272","2005-09-09",62.96,44.06,3.00,0.00,0.00
"USC00500272","2005-09-10",60.98,48.92,165.00,0.00,0.00
"USC00500272","2005-09-11",62.96,51.08,8.00,0.00,0.00
"USC00500272","2005-09-12",62.06,42.98,8.00,0.00,0.00
"USC00500272","2005-09-13",59.00,51.08,89.00,0.00,0.00
"USC00500272","2005-09-14",60.08,46.94,5.00,0.00,0.00
"USC00500272","2005-09-15",62.06,48.02,0.00,0.00,0.00
"USC00500272","2005-09-16",60.98,42.08,43.00,0.00,0.00
"USC00500272","2005-09-17",53.06,48.02,58.00,0.00,0.00
"USC00500272","2005-09-18",55.04,48.02,28.00,0.00,0.00
"USC00500272","2005-09-19",59.00,46.94,0.00,0.00,0.00
"USC00500272","2005-09-20",60.08,46.04,0.00,0.00,0.00
"USC00500272","2005-09-21",62.06,42.98,0.00,0.00,0.00
"USC00500272","2005-09-22",60.98,37.94,41.00,0.00,0.00
"USC00500272","2005-09-23",57.92,48.02,0.00,0.00,0.00
"USC00500272","2005-09-24",60.98,48.92,0.00,0.00,0.00
"USC00500272","2005-09-25",57.02,46.94,102.00,0.00,0.00
"USC00500272","2005-09-26",57.92,48.92,5.00,0.00,0.00
"USC00500272","2005-09-27",55.94,39.02,3.00,0.00,0.00
"USC00500272","2005-09-28",51.98,44.06,8.00,0.00,0.00
"USC00500272","2005-09-29",51.08,39.92,3.00,0.00,0.00
"USC00500272","2005-09-30",55.94,37.94,30.00,0.00,0.00
"USC00500272","2005-10-01",53.96,42.98,25.00,0.00,0.00
"USC00500272","2005-10-02",53.06,44.06,28.00,0.00,0.00
"USC00500272","2005-10-03",50.00,41.00,13.00,0.00,0.00
"USC00500272","2005-10-04",53.06,33.08,0.00,0.00,0.00
"USC00500272","2005-10-05",48.92,30.92,0.00,0.00,0.00
"USC00500272","2005-10-06",46.94,42.08,5.00,0.00,0.00
"USC00500272","2005-10-07",53.06,35.06,0.00,0.00,0.00
"USC00500272","2005-10-08",51.08,37.04,0.00,0.00,0.00
"USC00500272","2005-10-09",46.04,30.02,8.00,0.00,0.00
"USC00500272","2005-10-10",46.94,35.06,0.00,0.00,0.00
"USC00500272","2005-10-11",46.04,37.04,3.00,0.00,0.00
"USC00500272","2005-10-12",46.94,30.92,0.00,0.00,0.00
"USC00500272","2005-10-13",44.96,33.98,0.00,0.00,0.00
"USC00500272","2005-10-14",39.92,30.02,0.00,0.00,0.00
"USC00500272","2005-10-15",42.08,26.06,0.00,0.00,0.00
"USC00500272","2005-10-16",41.00,30.02,0.00,0.00,0.00
"USC00500272","2005-10-17",39.92,23.00,0.00,0.00,0.00
"USC00500272","2005-10-18",48.92,26.96,38.00,0.00,0.00
"USC00500272","2005-10-19",46.94,37.94,0.00,0.00,0.00
"USC00500272","2005-10-20",51.98,39.02,0.00,0.00,0.00
"USC00500272","2005-10-21",48.02,37.94,0.00,0.00,0.00
"USC00500272","2005-10-22",44.96,35.96,5.00,0.00,0.00
"USC00500272","2005-10-23",44.96,35.96,30.00,0.00,0.00
"USC00500272","2005-10-24",39.02,32.00,0.00,0.00,0.00
"USC00500272","2005-10-25",37.04,26.96,0.00,0.00,0.00
"USC00500272","2005-10-26",33.08,23.00,0.00,0.00,0.00
"USC00500272","2005-10-27",33.08,21.92,0.00,0.00,0.00
"USC00500272","2005-10-28",30.02,19.94,0.00,0.00,0.00
"USC00500272","2005-10-29",30.92,26.06,0.00,0.00,0.00
"USC00500272","2005-10-30",28.04,17.06,8.00,15.00,
"USC00500272","2005-10-31",28.94,21.92,0.00,0.00,
"USC00500272","2005-11-01",28.94,15.98,0.00,0.00,
"USC00500272","2005-11-02",23.00,12.92,0.00,0.00,
"USC00500272","2005-11-03",19.04,12.92,0.00,0.00,
"USC00500272","2005-11-04",19.04,8.06,0.00,0.00,
"USC00500272","2005-11-05",19.94,14.00,0.00,0.00,
"USC00500272","2005-11-06",19.94,8.96,8.00,20.00,25.00
"USC00500272","2005-11-07",17.96,6.08,0.00,0.00,
"USC00500272","2005-11-08",8.96,-0.94,0.00,0.00,
"USC00500272","2005-11-09",15.98,1.94,0.00,0.00,
"USC00500272","2005-11-10",26.96,12.02,0.00,0.00,
"USC00500272","2005-11-11",28.04,17.06,0.00,0.00,
"USC00500272","2005-11-12",23.00,19.04,8.00,13.00,25.00
"USC00500272","2005-11-13",23.00,17.96,0.00,0.00,
"USC00500272","2005-11-14",19.94,10.94,0.00,0.00,
"USC00500272","2005-11-15",17.06,8.96,0.00,0.00,
"USC00500272","2005-11-16",26.96,17.06,,,
"USC00500272","2005-11-17",26.96,17.06,,,
"USC00500272","2005-11-18",33.98,26.96,,,
"USC00500272","2005-11-19",39.92,32.00,,,
"USC00500272","2005-11-20",37.04,28.94,,,
"USC00500272","2005-11-21",28.94,19.04,,,
"USC00500272","2005-11-22",24.08,17.06,,,
"USC00500272","2005-11-23",26.06,21.02,,,
"USC00500272","2005-11-24",24.98,19.04,,,
"USC00500272","2005-11-25",19.94,15.08,,,
"USC00500272","2005-11-26",17.96,8.96,,,
"USC00500272","2005-11-27",8.96,3.02,,,
"USC00500272","2005-11-28",6.98,-2.92,,,
"USC00500272","2005-11-29",8.96,1.04,,,203.00
"USC00500272","2005-11-30",10.04,-0.04,0.00,0.00,
"USC00500272","2005-12-01",12.02,-2.92,0.00,0.00,
"USC00500272","2005-12-02",12.92,3.92,8.00,18.00,229.00
"USC00500272","2005-12-03",15.08,12.02,51.00,58.00,229.00
"USC00500272","2005-12-04",12.92,1.94,0.00,0.00,
"USC00500272","2005-12-05",15.98,-0.04,20.00,38.00,254.00
"USC00500272","2005-12-06",26.06,15.98,20.00,20.00,229.00
"USC00500272","2005-12-07",33.08,24.98,0.00,0.00,
"USC00500272","2005-12-08",42.08,32.00,10.00,0.00,
"USC00500272","2005-12-09",44.06,39.02,3.00,0.00,152.00
"USC00500272","2005-12-10",46.04,32.00,3.00,0.00,
"USC00500272","2005-12-11",35.06,32.00,0.00,0.00,127.00
"USC00500272","2005-12-12",32.00,30.92,36.00,20.00,152.00
"USC00500272","2005-12-13",32.00,15.08,61.00,58.00,203.00
"USC00500272","2005-12-14",17.96,12.02,0.00,0.00,
"USC00500272","2005-12-15",26.96,15.08,0.00,0.00,
"USC00500272","2005-12-16",35.96,24.98,0.00,0.00,
"USC00500272","2005-12-17",42.98,33.08,0.00,0.00,
"USC00500272","2005-12-18",35.06,28.04,0.00,0.00,
"USC00500272","2005-12-19",32.00,28.04,0.00,0.00,
"USC00500272","2005-12-20",30.92,19.94,0.00,0.00,
"USC00500272","2005-12-21",21.92,15.98,0.00,0.00,
"USC00500272","2005-12-22",28.94,19.94,10.00,0.00,178.00
"USC00500272","2005-12-23",30.02,26.06,0.00,0.00,
"USC00500272","2005-12-24",30.92,28.04,91.00,102.00,279.00
"USC00500272","2005-12-25",30.92,26.96,0.00,0.00,
"USC00500272","2005-12-26",28.04,24.98,0.00,0.00,
"USC00500272","2005-12-27",30.02,21.92,0.00,0.00,
"USC00500272","2005-12-28",26.06,19.04,0.00,0.00,
"USC00500272","2005-12-29",26.96,21.92,0.00,0.00,
"USC00500272","2005-12-30",28.94,21.02,0.00,0.00,
"USC00500272","2005-12-31",26.96,19.94,312.00,,254.00
"USC00500272","2006-01-01",24.98,19.94,0.00,0.00,
"USC00500272","2006-01-02",26.96,19.04,0.00,0.00,
"USC00500272","2006-01-03",24.08,14.00,0.00,0.00,
"USC00500272","2006-01-04",17.96,12.92,0.00,0.00,
"USC00500272","2006-01-05",15.98,8.96,0.00,0.00,
"USC00500272","2006-01-06",,10.04,0.00,0.00,
"USC00500272","2006-01-07",21.92,15.98,0.00,0.00,
"USC00500272","2006-01-08",26.06,15.08,0.00,0.00,
"USC00500272","2006-01-09",30.02,24.98,0.00,0.00,229.00
"USC00500272","2006-01-10",26.06,19.04,0.00,0.00,
"USC00500272","2006-01-11",23.00,14.00,0.00,0.00,
"USC00500272","2006-01-12",21.92,12.92,0.00,0.00,
"USC00500272","2006-01-13",19.94,8.96,0.00,0.00,
"USC00500272","2006-01-14",12.02,5.00,0.00,0.00,
"USC00500272","2006-01-15",14.00,6.08,38.00,102.00,279.00
"USC00500272","2006-01-16",15.98,8.06,0.00,0.00,
"USC00500272","2006-01-17",14.00,8.06,0.00,0.00,
"USC00500272","2006-01-18",15.08,3.92,0.00,0.00,
"USC00500272","2006-01-19",12.02,3.92,3.00,10.00,279.00
"USC00500272","2006-01-20",12.92,6.08,3.00,15.00,279.00
"USC00500272","2006-01-21",8.96,3.92,8.00,23.00,279.00
"USC00500272","2006-01-22",23.00,8.06,30.00,64.00,330.00
"USC00500272","2006-01-23",23.00,6.08,8.00,10.00,330.00
"USC00500272","2006-01-24",6.08,-5.08,0.00,0.00,
"USC00500272","2006-01-25",1.94,-7.96,0.00,0.00,
"USC00500272","2006-01-26",-0.04,-9.04,0.00,0.00,
"USC00500272","2006-01-27",-0.04,-7.06,0.00,0.00,
"USC00500272","2006-01-28",-2.92,-7.06,3.00,13.00,305.00
"USC00500272","2006-01-29",6.08,-5.08,0.00,0.00,
"USC00500272","2006-01-30",5.00,-7.96,0.00,0.00,
"USC00500272","2006-01-31",10.94,-2.92,0.00,0.00,
"USC00500272","2006-02-01",10.94,3.92,0.00,0.00,
"USC00500272","2006-02-02",15.98,1.94,33.00,58.00,356.00
"USC00500272","2006-02-03",8.06,-7.06,0.00,0.00,
"USC00500272","2006-02-04",1.94,-7.06,0.00,0.00,
"USC00500272","2006-02-05",10.94,-5.98,0.00,0.00,
"USC00500272","2006-02-06",30.92,8.96,25.00,10.00,305.00
"USC00500272","2006-02-07",39.92,30.92,0.00,0.00,
"USC00500272","2006-02-08",33.08,21.02,0.00,0.00,
"USC00500272","2006-02-09",23.00,10.04,0.00,0.00,
"USC00500272","2006-02-10",39.92,15.08,0.00,0.00,
"USC00500272","2006-02-11",37.94,24.08,0.00,0.00,
"USC00500272","2006-02-12",44.06,33.08,0.00,0.00,
"USC00500272","2006-02-13",39.02,30.02,0.00,0.00,
"USC00500272","2006-02-14",33.98,26.06,0.00,0.00,
"USC00500272","2006-02-15",35.06,21.92,79.00,18.00,
"USC00500272","2006-02-16",35.06,24.08,0.00,0.00,
"USC00500272","2006-02-17",39.02,30.02,0.00,0.00,
"USC00500272","2006-02-18",30.02,24.98,0.00,0.00,
"USC00500272","2006-02-19",42.08,28.94,3.00,0.00,
"USC00500272","2006-02-20",39.02,30.02,0.00,0.00,
"USC00500272","2006-02-21",35.06,26.96,0.00,0.00,
"USC00500272","2006-02-22",28.94,19.04,0.00,0.00,
"USC00500272","2006-02-23",30.02,17.06,0.00,0.00,
"USC00500272","2006-02-24",19.94,15.08,0.00,0.00,
"USC00500272","2006-02-25",19.94,6.98,0.00,0.00,
"USC00500272","2006-02-26",17.06,6.08,48.00,76.00,330.00
"USC00500272","2006-02-27",15.98,1.04,0.00,0.00,
"USC00500272","2006-02-28",19.04,6.08,0.00,0.00,
"USC00500272","2006-03-01",19.04,1.94,0.00,0.00,
"USC00500272","2006-03-02",12.92,3.02,0.00,0.00,
"USC00500272","2006-03-03",17.96,8.96,8.00,15.00,330.00
"USC00500272","2006-03-04",24.08,12.92,0.00,0.00,
"USC00500272","2006-03-05",30.92,12.02,0.00,0.00,
"USC00500272","2006-03-06",32.00,23.00,0.00,0.00,
"USC00500272","2006-03-07",33.08,26.06,18.00,23.00,330.00
"USC00500272","2006-03-08",28.04,21.02,51.00,91.00,406.00
"USC00500272","2006-03-09",30.92,12.92,0.00,0.00,
"USC00500272","2006-03-10",26.06,12.02,0.00,0.00,
"USC00500272","2006-03-11",23.00,1.94,0.00,0.00,
"USC00500272","2006-03-12",19.94,-0.04,0.00,0.00,
"USC00500272","2006-03-13",28.04,10.94,0.00,0.00,
"USC00500272","2006-03-14",33.08,1.94,0.00,0.00,
"USC00500272","2006-03-15",30.02,3.92,0.00,0.00,
"USC00500272","2006-03-16",28.04,8.96,0.00,0.00,
"USC00500272","2006-03-17",24.98,8.06,0.00,0.00,
"USC00500272","2006-03-18",24.08,1.04,0.00,0.00,
"USC00500272","2006-03-19",23.00,12.02,0.00,0.00,
"USC00500272","2006-03-20",30.92,21.92,61.00,127.00,457.00
"USC00500272","2006-03-21",33.08,26.96,13.00,10.00,457.00
"USC00500272","2006-03-22",46.94,28.94,0.00,0.00,
"USC00500272","2006-03-23",44.06,19.94,0.00,0.00,
"USC00500272","2006-03-24",39.02,24.98,0.00,0.00,
"USC00500272","2006-03-25",39.92,28.94,0.00,0.00,
"USC00500272","2006-03-26",42.08,28.94,0.00,0.00,
"USC00500272","2006-03-27",42.08,24.08,0.00,0.00,
"USC00500272","2006-03-28",44.96,24.08,0.00,0.00,
"USC00500272","2006-03-29",42.08,19.94,0.00,0.00,
"USC00500272","2006-03-30",41.00,23.00,0.00,0.00,
"USC00500272","2006-03-31",41.00,17.96,0.00,0.00,330.00
"USC00500272","2006-04-01",39.92,28.04,0.00,0.00,
"USC00500272","2006-04-02",46.04,30.92,30.00,36.00,381.00
"USC00500272","2006-04-03",39.92,26.06,0.00,0.00,
"USC00500272","2006-04-04",35.96,28.04,8.00,8.00,432.00
"USC00500272","2006-04-05",44.96,30.92,0.00,0.00,
"USC00500272","2006-04-06",44.06,28.94,20.00,71.00,432.00
"USC00500272","2006-04-07",44.96,26.06,0.00,0.00,
"USC00500272","2006-04-08",44.96,28.04,0.00,0.00,
"USC00500272","2006-04-09",46.04,26.06,0.00,0.00,
"USC00500272","2006-04-10",44.06,33.08,13.00,0.00,305.00
"USC00500272","2006-04-11",42.98,30.92,0.00,0.00,
"USC00500272","2006-04-12",37.94,24.08,0.00,0.00,
"USC00500272","2006-04-13",41.00,28.94,0.00,0.00,
"USC00500272","2006-04-14",48.02,28.94,0.00,0.00,
"USC00500272","2006-04-15",44.06,26.06,0.00,0.00,
"USC00500272","2006-04-16",37.94,24.08,0.00,0.00,
"USC00500272","2006-04-17",37.94,19.04,0.00,0.00,
"USC00500272","2006-04-18",46.04,28.94,0.00,0.00,
"USC00500272","2006-04-19",50.00,24.98,0.00,0.00,
"USC00500272","2006-04-20",46.04,28.04,0.00,0.00,
"USC00500272","2006-04-21",48.02,26.96,0.00,0.00,0.00
"USC00500272","2006-04-22",42.98,32.00,0.00,0.00,0.00
"USC00500272","2006-04-23",46.94,32.00,0.00,0.00,0.00
"USC00500272","2006-04-24",48.02,30.02,13.00,0.00,0.00
"USC00500272","2006-04-25",44.06,33.08,10.00,0.00,0.00
"USC00500272","2006-04-26",51.08,28.94,0.00,0.00,0.00
"USC00500272","2006-04-27",53.06,26.06,0.00,0.00,0.00
"USC00500272","2006-04-28",53.06,30.02,0.00,0.00,0.00
"USC00500272","2006-04-29",51.98,32.00,0.00,0.00,0.00
"USC00500272","2006-04-30",51.08,28.04,0.00,0.00,0.00
"USC00500272","2006-05-01",51.08,28.04,0.00,0.00,0.00
"USC00500272","2006-05-02",53.96,28.04,0.00,0.00,0.00
"USC00500272","2006-05-03",48.92,37.04,0.00,0.00,0.00
"USC00500272","2006-05-04",53.06,30.92,23.00,0.00,0.00
"USC00500272","2006-05-05",57.92,37.04,0.00,0.00,0.00
"USC00500272","2006-05-06",57.02,30.02,0.00,0.00,0.00
"USC00500272","2006-05-07",55.04,37.04,0.00,0.00,0.00
"USC00500272","2006-05-08",51.08,33.08,18.00,0.00,0.00
"USC00500272","2006-05-09",48.92,30.02,0.00,0.00,0.00
"USC00500272","2006-05-10",55.04,33.08,0.00,0.00,0.00
"USC00500272","2006-05-11",55.04,35.06,0.00,0.00,0.00
"USC00500272","2006-05-12",57.02,37.04,0.00,0.00,0.00
"USC00500272","2006-05-13",62.06,37.04,0.00,0.00,0.00
"USC00500272","2006-05-14",64.94,35.06,0.00,0.00,0.00
"USC00500272","2006-05-15",60.98,37.04,0.00,0.00,0.00
"USC00500272","2006-05-16",53.96,42.08,0.00,0.00,0.00
"USC00500272","2006-05-17",51.98,39.02,0.00,0.00,0.00
"USC00500272","2006-05-18",48.02,39.02,0.00,0.00,0.00
"USC00500272","2006-05-19",57.02,37.04,0.00,0.00,0.00
"USC00500272","2006-05-20",59.00,37.94,0.00,0.00,0.00
"USC00500272","2006-05-21",51.08,41.00,0.00,0.00,0.00
"USC00500272","2006-05-22",60.98,42.98,0.00,0.00,0.00
"USC00500272","2006-05-23",71.06,42.08,0.00,0.00,0.00
"USC00500272","2006-05-24",75.92,46.04,0.00,0.00,0.00
"USC00500272","2006-05-25",75.92,46.94,0.00,0.00,0.00
"USC00500272","2006-05-26",78.08,48.02,0.00,0.00,0.00
"USC00500272","2006-05-27",80.96,51.08,0.00,0.00,0.00
"USC00500272","2006-05-28",80.06,51.08,0.00,0.00,0.00
"USC00500272","2006-05-29",77.00,51.98,0.00,0.00,0.00
"USC00500272","2006-05-30",66.02,46.94,0.00,0.00,0.00
"USC00500272","2006-05-31",57.92,42.08,0.00,0.00,0.00
"USC00500272","2006-06-01",51.08,46.04,89.00,0.00,0.00
"USC00500272","2006-06-02",60.98,46.04,3.00,0.00,0.00
"USC00500272","2006-06-03",71.06,42.98,0.00,0.00,0.00
"USC00500272","2006-06-04",69.08,46.04,0.00,0.00,0.00
"USC00500272","2006-06-05",64.04,44.06,0.00,0.00,0.00
"USC00500272","2006-06-06",62.96,39.02,0.00,0.00,0.00
"USC00500272","2006-06-07",69.98,39.92,0.00,0.00,0.00
"USC00500272","2006-06-08",62.06,46.94,0.00,0.00,0.00
"USC00500272","2006-06-09",64.04,44.96,0.00,0.00,0.00
"USC00500272","2006-06-10",59.00,48.92,0.00,0.00,0.00
"USC00500272","2006-06-11",66.92,44.96,0.00,0.00,0.00
"USC00500272","2006-06-12",59.00,48.02,20.00,0.00,0.00
"USC00500272","2006-06-13",59.00,48.92,36.00,0.00,0.00
"USC00500272","2006-06-14",66.92,53.96,0.00,0.00,0.00
"USC00500272","2006-06-15",73.94,51.08,23.00,0.00,0.00
"USC00500272","2006-06-16",62.06,50.00,104.00,0.00,0.00
"USC00500272","2006-06-17",66.02,51.08,5.00,0.00,0.00
"USC00500272","2006-06-18",68.00,53.06,0.00,0.00,0.00
"USC00500272","2006-06-19",60.08,51.08,0.00,0.00,0.00
"USC00500272","2006-06-20",60.98,48.02,0.00,0.00,0.00
"USC00500272","2006-06-21",60.98,46.04,0.00,0.00,0.00
"USC00500272","2006-06-22",64.94,42.08,81.00,0.00,0.00
"USC00500272","2006-06-23",55.94,46.94,41.00,0.00,0.00
"USC00500272","2006-06-24",68.00,48.92,0.00,0.00,0.00
"USC00500272","2006-06-25",68.00,44.96,0.00,0.00,0.00
"USC00500272","2006-06-26",66.02,48.02,30.00,0.00,0.00
"USC00500272","2006-06-27",68.00,48.02,3.00,0.00,0.00
"USC00500272","2006-06-28",68.00,48.92,0.00,0.00,0.00
"USC00500272","2006-06-29",68.00,46.94,0.00,0.00,0.00
"USC00500272","2006-06-30",69.08,50.00,8.00,0.00,0.00
"USC00500272","2006-08-01",68.00,48.02,10.00,0.00,
"USC00500272","2006-08-02",62.96,51.08,8.00,0.00,0.00
"USC00500272","2006-08-03",60.98,50.00,0.00,0.00,0.00
"USC00500272","2006-08-04",59.00,51.98,0.00,0.00,0.00
"USC00500272","2006-08-05",59.00,51.08,0.00,0.00,0.00
"USC00500272","2006-08-06",68.00,50.00,0.00,0.00,0.00
"USC00500272","2006-08-07",71.96,51.08,0.00,0.00,0.00
"USC00500272","2006-08-08",73.94,53.06,0.00,0.00,0.00
"USC00500272","2006-08-09",75.92,53.06,0.00,0.00,0.00
"USC00500272","2006-08-10",62.96,53.96,30.00,0.00,0.00
"USC00500272","2006-08-11",60.98,53.96,56.00,0.00,0.00
"USC00500272","2006-08-12",59.00,51.98,107.00,0.00,0.00
"USC00500272","2006-08-13",64.04,51.98,28.00,0.00,0.00
"USC00500272","2006-08-14",66.02,51.08,56.00,0.00,0.00
"USC00500272","2006-08-15",55.04,51.08,157.00,0.00,0.00
"USC00500272","2006-08-16",55.04,50.00,97.00,0.00,0.00
"USC00500272","2006-08-17",59.00,50.00,53.00,0.00,0.00
"USC00500272","2006-08-18",60.98,51.98,41.00,0.00,0.00
"USC00500272","2006-08-19",57.92,48.92,262.00,0.00,0.00
"USC00500272","2006-08-20",57.92,48.02,145.00,0.00,0.00
"USC00500272","2006-08-21",51.98,46.04,79.00,0.00,0.00
"USC00500272","2006-08-22",60.08,46.04,5.00,0.00,0.00
"USC00500272","2006-08-23",53.06,46.94,180.00,0.00,0.00
"USC00500272","2006-08-24",60.98,46.04,0.00,0.00,0.00
"USC00500272","2006-08-25",53.06,48.02,279.00,0.00,0.00
"USC00500272","2006-08-26",60.08,48.92,91.00,0.00,0.00
"USC00500272","2006-08-27",55.04,39.92,8.00,0.00,0.00
"USC00500272","2006-08-28",64.94,46.94,0.00,0.00,0.00
"USC00500272","2006-08-29",66.92,46.04,0.00,0.00,0.00
"USC00500272","2006-08-30",66.02,46.04,0.00,0.00,0.00
"USC00500272","2006-08-31",55.04,46.04,8.00,0.00,0.00
"USC00500272","2006-09-01",59.00,48.02,5.00,0.00,0.00
"USC00500272","2006-09-02",66.92,46.94,5.00,0.00,0.00
"USC00500272","2006-09-03",59.00,48.92,0.00,0.00,0.00
"USC00500272","2006-09-04",64.94,44.96,0.00,0.00,0.00
"USC00500272","2006-09-05",57.02,41.00,64.00,0.00,0.00
"USC00500272","2006-09-06",59.00,46.94,0.00,0.00,0.00
"USC00500272","2006-09-07",53.96,42.08,8.00,0.00,0.00
"USC00500272","2006-09-08",60.98,42.98,5.00,0.00,0.00
"USC00500272","2006-09-09",59.00,48.02,0.00,0.00,0.00
"USC00500272","2006-09-10",57.02,46.04,0.00,0.00,0.00
"USC00500272","2006-09-11",66.02,41.00,13.00,0.00,0.00
"USC00500272","2006-09-12",62.96,46.04,0.00,0.00,0.00
"USC00500272","2006-09-13",64.04,42.08,0.00,0.00,0.00
"USC00500272","2006-09-14",64.04,39.92,,0.00,0.00
"USC00500272","2006-09-15",51.08,42.98,,0.00,0.00
"USC00500272","2006-09-16",51.98,48.02,36.00,0.00,0.00
"USC00500272","2006-09-17",53.06,46.94,0.00,0.00,0.00
"USC00500272","2006-09-18",60.08,41.00,0.00,0.00,0.00
"USC00500272","2006-09-19",59.00,35.96,0.00,0.00,0.00
"USC00500272","2006-09-20",51.98,44.96,15.00,0.00,0.00
"USC00500272","2006-09-21",59.00,42.98,0.00,0.00,0.00
"USC00500272","2006-09-22",53.06,39.02,58.00,0.00,0.00
"USC00500272","2006-09-23",53.06,46.04,157.00,0.00,0.00
"USC00500272","2006-09-24",51.08,39.92,25.00,0.00,0.00
"USC00500272","2006-09-25",53.96,37.94,0.00,0.00,0.00
"USC00500272","2006-09-26",55.94,39.92,8.00,0.00,0.00
"USC00500272","2006-09-27",46.94,42.98,142.00,0.00,0.00
"USC00500272","2006-09-28",51.08,42.98,127.00,0.00,0.00
"USC00500272","2006-09-29",48.02,44.06,119.00,0.00,0.00
"USC00500272","2006-09-30",48.02,39.02,5.00,0.00,0.00
"USC00500272","2006-10-01",46.94,30.92,0.00,0.00,0.00
"USC00500272","2006-10-02",42.98,32.00,36.00,0.00,0.00
"USC00500272","2006-10-03",44.96,37.94,10.00,0.00,0.00
"USC00500272","2006-10-04",51.08,39.92,58.00,0.00,0.00
"USC00500272","2006-10-05",51.08,39.02,30.00,0.00,0.00
"USC00500272","2006-10-06",51.08,39.02,,0.00,0.00
"USC00500272","2006-10-07",50.00,39.02,,0.00,0.00
"USC00500272","2006-10-08",55.04,44.96,,0.00,0.00
"USC00500272","2006-10-09",53.06,42.98,,0.00,0.00
"USC00500272","2006-10-10",64.04,42.98,183.00,0.00,0.00
"USC00500272","2006-10-11",57.02,42.08,25.00,0.00,0.00
"USC00500272","2006-10-12",53.96,42.08,28.00,0.00,0.00
"USC00500272","2006-10-13",48.92,35.96,0.00,0.00,0.00
"USC00500272","2006-10-14",46.94,30.92,0.00,0.00,0.00
"USC00500272","2006-10-15",44.06,28.04,0.00,0.00,0.00
"USC00500272","2006-10-16",41.00,26.06,0.00,0.00,0.00
"USC00500272","2006-10-17",44.06,30.92,25.00,0.00,0.00
"USC00500272","2006-10-18",41.00,33.08,0.00,0.00,0.00
"USC00500272","2006-10-19",42.98,37.94,18.00,0.00,0.00
"USC00500272","2006-10-20",46.94,37.94,0.00,0.00,0.00
"USC00500272","2006-10-21",50.00,35.06,0.00,0.00,0.00
"USC00500272","2006-10-22",42.98,30.02,0.00,0.00,0.00
"USC00500272","2006-10-23",39.02,30.92,0.00,0.00,0.00
"USC00500272","2006-10-24",41.00,28.04,0.00,0.00,0.00
"USC00500272","2006-10-25",32.00,24.08,0.00,0.00,0.00
"USC00500272","2006-10-26",37.94,28.04,20.00,48.00,51.00
"USC00500272","2006-10-27",32.00,30.02,5.00,5.00,25.00
"USC00500272","2006-10-28",30.02,19.94,0.00,0.00,
"USC00500272","2006-10-29",30.02,15.98,107.00,147.00,152.00
"USC00500272","2006-10-30",33.98,26.06,20.00,23.00,152.00
"USC00500272","2006-10-31",33.08,30.02,0.00,0.00,
"USC00500272","2006-11-01",30.92,24.08,0.00,0.00,
"USC00500272","2006-11-02",28.04,17.06,0.00,0.00,
"USC00500272","2006-11-03",23.00,14.00,0.00,0.00,
"USC00500272","2006-11-04",23.00,8.96,0.00,0.00,
"USC00500272","2006-11-05",21.02,6.98,0.00,0.00,
"USC00500272","2006-11-06",19.04,3.92,0.00,0.00,
"USC00500272","2006-11-07",17.06,3.02,0.00,0.00,
"USC00500272","2006-11-08",19.04,6.98,0.00,0.00,
"USC00500272","2006-11-09",17.96,6.08,0.00,0.00,
"USC00500272","2006-11-10",15.98,3.02,5.00,13.00,102.00
"USC00500272","2006-11-11",28.04,15.98,0.00,0.00,
"USC00500272","2006-11-12",23.00,8.96,0.00,0.00,
"USC00500272","2006-11-13",17.96,6.08,0.00,0.00,
"USC00500272","2006-11-14",12.92,6.08,0.00,0.00,
"USC00500272","2006-11-15",12.02,1.04,0.00,0.00,
"USC00500272","2006-11-16",12.92,6.08,0.00,0.00,
"USC00500272","2006-11-17",12.92,1.04,0.00,0.00,
"USC00500272","2006-11-18",15.98,3.02,0.00,0.00,
"USC00500272","2006-11-19",17.96,-0.04,0.00,0.00,
"USC00500272","2006-11-20",26.06,3.92,0.00,0.00,